Location: Wiler
(46.4041°N, 7.7840°E)
Time: 12:18:52
(UTC+00:00)

Cosmos 676 Rocket - Pass Details

Date: 09 April 2020
Orbit: 755 x 783 km, 74.0° (Epoch: 27 May)

Event Time Altitude Azimuth Distance (km) Brightness Sun altitude
Rises 19:06:05 0° 181° (S) 3,242 7.0 -10.2°
Reaches altitude 10° 19:08:33 10° 175° (S) 2,315 6.2 -10.6°
Maximum altitude 19:13:31 44° 104° (ESE) 1,058 4.3 -11.4°
Drops below altitude 10° 19:18:28 10° 34° (NNE) 2,313 6.4 -12.1°
Sets 19:20:56 0° 28° (NNE) 3,240 7.2 -12.5°
